Weather History for KPOU - February, 2013

Change the Weather History Date:

Tuesday, February 19, 2013

  Actual Average Record
Temperature  
Mean Temperature 33 °F 29 °F  
Max Temperature 44 °F 40 °F 61 °F (1981)
Min Temperature 21 °F 18 °F 0 °F (1958)
Degree Days  
Heating Degree Days 32 36  
Month to date heating degree days 698 709  
Since 1 July heating degree days 3849 4261  
Cooling Degree Days 0 0  
Month to date cooling degree days 0 0  
Year to date cooling degree days 0 0  
Moisture  
Dew Point 29 °F    
Average Humidity 72    
Maximum Humidity 100    
Minimum Humidity 43    
Precipitation  
Precipitation 0.10 in 0.09 in 1.30 in (1972)
Month to date precipitation 0.73 1.76  
Year to date precipitation 2.78 4.84  
Sea Level Pressure  
Sea Level Pressure 29.81 in    
Wind  
Wind Speed 4 mph (SSW)    
Max Wind Speed 16 mph    
Max Gust Speed 26 mph    
Visibility 6 miles    
Events Fog , Rain    
T = Trace of Precipitation, MM = Missing Value Source: NWS Daily Summary

Daily Weather History Graph

Daily Weather History Graph

Search for Another Location

Airport or City:

Trip Planner

Search our weather history database for the weather conditions in past years. The results will help you decide how hot, cold, wet, or windy it might be!

Date:

Astronomy

Feb. 19, 2013 Rise Set
Actual Time 6:44 AM EST 5:34 PM EST
Civil Twilight 6:16 AM EST 6:02 PM EST
Nautical Twilight 5:44 AM EST 6:34 PM EST
Astronomical Twilight 5:12 AM EST 7:07 PM EST
Moon 12:01 PM EST (2/19) 2:17 AM EST (2/19)
Length of Visible Light 11h 45m
Length of Day
10h 49m
Waxing Gibbous, 67% of the Moon is Illuminated
Feb 19
Waxing Gibbous
Feb 25
Full
Mar 4
Last Quarter
Mar 11
New
Mar 19
First Quarter

Hourly Weather History & Observations

Time (EST) Temp. Windchill Dew Point Humidity Pressure Visibility Wind Dir Wind Speed Gust Speed Precip Events Conditions
12:53 AM 30.0 °F 25.2 °F 10.9 °F 45% 30.16 in 10.0 mi SSE 4.6 mph - N/A   Overcast
1:53 AM 30.9 °F - 12.9 °F 47% 30.14 in 10.0 mi Calm Calm - N/A   Overcast
2:53 AM 28.9 °F 25.2 °F 12.0 °F 49% 30.13 in 10.0 mi SSE 3.5 mph - N/A   Clear
3:53 AM 25.0 °F - 14.0 °F 63% 30.11 in 10.0 mi Calm Calm - N/A   Clear
4:53 AM 24.1 °F - 15.1 °F 69% 30.10 in 10.0 mi Calm Calm - N/A   Clear
5:53 AM 23.0 °F - 16.0 °F 74% 30.07 in 10.0 mi Calm Calm - N/A   Clear
6:53 AM 21.9 °F - 15.1 °F 75% 30.04 in 9.0 mi Calm Calm - N/A   Clear
7:53 AM 30.0 °F 25.2 °F 15.1 °F 54% 30.04 in 10.0 mi SSE 4.6 mph - N/A   Clear
8:53 AM 34.0 °F - 17.1 °F 50% 30.01 in 10.0 mi Calm Calm - N/A   Clear
9:53 AM 37.9 °F 32.1 °F 19.9 °F 48% 29.98 in 10.0 mi SSE 8.1 mph - N/A   Mostly Cloudy
10:53 AM 39.9 °F 35.8 °F 21.0 °F 47% 29.94 in 10.0 mi Variable 5.8 mph - N/A   Clear
11:53 AM 41.0 °F 37.1 °F 23.0 °F 49% 29.91 in 10.0 mi Variable 5.8 mph - N/A   Clear
1:25 PM 42.8 °F 35.4 °F 30.2 °F 61% 29.86 in 5.0 mi SSW 15.0 mph 24.2 mph 0.00 in Rain Light Rain
1:53 PM 39.9 °F 34.5 °F 33.1 °F 77% 29.83 in 6.0 mi South 8.1 mph 17.3 mph 0.01 in Rain Light Rain
2:53 PM 41.0 °F 35.8 °F 35.1 °F 79% 29.79 in 7.0 mi South 8.1 mph - 0.00 in Rain Light Rain
3:53 PM 41.0 °F 35.8 °F 36.0 °F 82% 29.75 in 6.0 mi SSW 8.1 mph - 0.00 in Rain Light Rain
4:53 PM 39.0 °F 36.8 °F 37.0 °F 93% 29.72 in 5.0 mi WNW 3.5 mph - 0.02 in Rain Light Rain
5:32 PM 37.4 °F - 35.6 °F 93% 29.71 in 4.0 mi Calm Calm - 0.01 in Rain Light Rain
5:49 PM 37.4 °F - 35.6 °F 93% 29.71 in 1.8 mi Calm Calm - 0.01 in Rain Light Rain
5:53 PM 37.9 °F - 37.0 °F 97% 29.70 in 1.8 mi Calm Calm - 0.01 in Rain Light Rain
6:17 PM 37.4 °F - 37.4 °F 100% 29.70 in 0.5 mi Calm Calm - 0.02 in Fog , Rain Light Rain
6:22 PM 37.4 °F - 35.6 °F 93% 29.70 in 0.2 mi Calm Calm - 0.03 in Fog , Rain Light Rain
6:31 PM 37.4 °F - 35.6 °F 93% 29.69 in 0.8 mi Calm Calm - 0.03 in Rain Light Rain
7:35 PM 35.6 °F 32.8 °F 35.6 °F 100% 29.67 in 0.2 mi North 3.5 mph - 0.01 in Fog Fog
7:38 PM 35.6 °F - 35.6 °F 100% 29.67 in 0.2 mi Calm Calm - 0.01 in Fog Fog
7:53 PM 35.1 °F 32.2 °F 35.1 °F 100% 29.68 in 0.2 mi WNW 3.5 mph - 0.01 in Fog Fog
8:10 PM 37.4 °F 34.9 °F 35.6 °F 93% 29.68 in 1.8 mi NW 3.5 mph - N/A   Overcast
8:20 PM 37.4 °F - 37.4 °F 100% 29.67 in 2.0 mi Calm Calm - 0.01 in Rain Light Rain
8:27 PM 35.6 °F - 35.6 °F 100% 29.67 in 2.0 mi Calm Calm - 0.01 in Rain Light Rain
8:34 PM 35.6 °F - 35.6 °F 100% 29.67 in 1.5 mi Calm Calm - 0.02 in Rain Light Rain
8:46 PM 37.4 °F - 35.6 °F 93% 29.67 in 2.5 mi Calm Calm - 0.02 in Rain Light Rain
8:51 PM 37.4 °F - 35.6 °F 93% 29.66 in 4.0 mi Calm Calm - 0.02 in Rain Light Rain
8:53 PM 37.0 °F - 36.0 °F 96% 29.66 in 4.0 mi Calm Calm - 0.02 in   Overcast
9:02 PM 37.4 °F 34.9 °F 35.6 °F 93% 29.67 in 4.0 mi South 3.5 mph - N/A   Overcast
9:41 PM 37.4 °F - 35.6 °F 93% 29.66 in 6.0 mi Calm Calm - N/A   Overcast
9:53 PM 37.0 °F - 36.0 °F 96% 29.66 in 5.0 mi Calm Calm - N/A   Overcast
10:53 PM 37.0 °F 33.3 °F 35.1 °F 93% 29.65 in 8.0 mi South 4.6 mph - N/A   Mostly Cloudy
11:53 PM 37.0 °F 28.1 °F 30.0 °F 76% 29.66 in 10.0 mi WSW 15.0 mph 21.9 mph N/A   Mostly Cloudy